Location: Lake Sonoma
(38.7200°N, 123.0564°W)
Time: 09:19:59
(UTC-08:00)

ISS - Visible Passes

Search period start: 24 February 2017 00:00
Search period end: 06 March 2017 00:00
Orbit: 399 x 408 km, 51.6° (Epoch: 24 February)

Date Brightness Start Highest point End Pass type
(mag) Time Alt. Az. Time Alt. Az. Time Alt. Az.
27 Feb -0.8 06:19:05 10° S 06:21:45 23° SE 06:24:27 10° ENE visible
28 Feb -0.2 05:28:08 10° SSE 05:29:24 12° SE 05:30:39 10° ESE visible
01 Mar -2.8 06:09:38 10° SW 06:12:53 60° SE 06:16:08 10° ENE visible
02 Mar -1.5 05:17:59 13° S 05:20:23 29° SE 05:23:17 10° ENE visible
03 Mar -0.5 04:28:09 15° SE 04:28:09 15° SE 04:29:53 10° E visible
03 Mar -3.1 06:00:53 10° WSW 06:04:07 53° NW 06:07:21 10° NE visible
04 Mar -3.3 05:10:47 51° SSW 05:11:29 77° SE 05:14:47 10° NE visible
05 Mar -0.7 04:20:35 21° E 04:20:35 21° E 04:21:59 10° ENE visible
05 Mar -2.0 05:53:14 14° W 05:55:26 26° NNW 05:58:17 10° NNE visible
